Location: Arroyo de Valdeoliva
(40.1604°N, 4.9878°W)
Time: 19:23:13
(UTC+00:00)

SMAP - Pass Details

Date: 11 December 2025
Orbit: 681 x 683 km, 98.1° (Epoch: 12 January)

Event Time Altitude Azimuth Distance (km) Brightness Sun altitude
Rises 17:35:03 0° 160° (SSE) 3,031 6.5 -7.8°
Reaches altitude 10° 17:37:17 10° 158° (SSE) 2,120 5.6 -8.2°
Maximum altitude 17:41:54 72° 75° (ENE) 721 3.0 -9.0°
Drops below altitude 10° 17:46:33 10° 352° (N) 2,135 5.5 -9.8°
Sets 17:48:49 0° 350° (N) 3,054 6.3 -10.2°
